Regional Weather Roundup
Issued by NWS Upton, NY

Current Version | Previous Version | Graphics & Text | Print | Product List | Glossary Off
Versions: 1 2 3 4 5 6 7 8 9 10 11 12 13 14 15 16 17 18 19 20 21 22 23 24 25 26 27 28 29 30 31 32 33 34 35 36 37 38 39 40 41 42 43 44 45 46 47 48 49 50
000 ASUS41 KOKX 270705 RWROKX REGIONAL WEATHER ROUNDUP NATIONAL WEATHER SERVICE NEW YORK NY 200 AM EST SAT DEC 27 2014 NOTE: "FAIR" INDICATES FEW OR NO CLOUDS BELOW 12,000 FEET WITH NO SIGNIFICANT WEATHER AND/OR OBSTRUCTIONS TO VISIBILITY. NYZ071-072-176-178-NJZ106-104-270800- NEW YORK CITY METRO AREA CITY SKY/WX TMP DP RH WIND PRES REMARKS CENTRAL PARK CLEAR 44 29 55 W3 30.22S LAGUARDIA APRT PTCLDY 45 30 55 W5 30.20S KENNEDY INTL PTCLDY 38 30 73 SW5 30.22S WCI 34 NEWARK/LIBERTY PTCLDY 36 29 75 SW6 30.22R WCI 31 BRNX BOT. GARD N/A N/A N/A N/A W2 30.20F TETERBORO CLEAR 30 27 88 CALM 30.20S $$ NYZ177-179-078>081-270800- LONG ISLAND NEW YORK CITY SKY/WX TMP DP RH WIND PRES REMARKS FARMINGDALE CLEAR 38 30 73 W3 30.20S ISLIP CLEAR 34 29 82 NW3 30.18S SHIRLEY CLEAR 35 28 75 CALM 30.20S WESTHAMPTON CLEAR 24 20 84 CALM 30.22R MONTAUK POINT N/A 43 34 70 W6 30.19R $$ NYZ052-065-067-270800- HUDSON VALLEY CITY SKY/WX TMP DP RH WIND PRES REMARKS WHITE PLAINS CLEAR 37 28 70 NW5 30.18S WCI 33 NEWBURGH CLEAR 34 30 86 W9 30.20R WCI 26 MONTGOMERY CLEAR 27 25 92 CALM 30.19R POUGHKEEPSIE CLEAR 39 28 64 S5 30.20R ALBANY PTCLDY 28 24 85 CALM 30.18R $$ NJZ001-105-106-008-010-013-015-019>022-104-270800- NEW JERSEY CITY SKY/WX TMP DP RH WIND PRES REMARKS NEWARK/LIBERTY PTCLDY 36 29 75 SW6 30.22R WCI 31 TETERBORO CLEAR 30 27 88 CALM 30.20S CALDWELL CLEAR 31 28 89 SW3 30.22R MORRISTOWN CLEAR 30 28 93 CALM 30.21R SOMERVILLE CLEAR 28 25 88 CALM 30.20F SUSSEX CLEAR 27 25 92 CALM 30.20S ANDOVER NOT AVBL TRENTON CLEAR 38 29 70 W5 30.21S WCI 34 MILLVILLE CLEAR 28 27 96 CALM 30.24R ATLANTIC CITY CLEAR 35 32 88 W3 30.24S WRIGHTSTOWN CLEAR 31 29 91 SW3 30.20S TOMS RIVER CLEAR 30 28 93 CALM 30.22R BELMAR CLEAR 37 28 70 W6 30.21S WCI 33 $$ PAZ047>061-062-071-270800- EASTERN PENNSYLVANIA CITY SKY/WX TMP DP RH WIND PRES REMARKS PHILADELPHIA MOCLDY 36 31 82 W5 30.25R WCI 32 ALLENTOWN PTCLDY 30 26 85 CALM 30.22R FOG SCRANTON PTCLDY 34 28 79 SW8 30.21R WCI 27 $$ CTZ002-004>006-009-010-012-RIZ004-006-007-MAZ004-011-015-270800- SOUTHERN NEW ENGLAND IN CT CITY SKY/WX TMP DP RH WIND PRES REMARKS BRADLEY INTL MOCLDY 29 25 85 CALM 30.16R HARTFORD PTCLDY 30 28 92 CALM 30.19R DANBURY CLEAR 28 23 81 CALM 30.20R WTRBRY/OXFORD CLEAR 36 25 64 W5 30.19R WCI 32 BRIDGEPORT CLEAR 38 32 79 W6 30.20R WCI 33 MERIDEN PTCLDY 27 24 89 CALM 30.19R FOG NEW HAVEN CLEAR 37 30 75 CALM 30.20R CHESTER FAIR 37 30 75 NW6 30.18R WCI 33 GROTON CLEAR 30 28 92 N3 30.18R WILLIMANTIC CLEAR 27 23 85 CALM 30.18R IN RI CITY SKY/WX TMP DP RH WIND PRES REMARKS PROVIDENCE CLEAR 36 28 73 W6 30.15R WCI 31 BLOCK ISLAND CLEAR 43 34 70 W12 30.17R WESTERLY CLEAR 38 32 79 W5 30.18R WCI 34 IN MA CITY SKY/WX TMP DP RH WIND PRES REMARKS BOSTON CLEAR 40 29 64 W8 30.14R WCI 34 WORCESTER CLEAR 31 27 85 SW9 30.13R WCI 23 WESTFIELD PTCLDY 27 23 85 CALM 30.16R PROVINCETOWN CLEAR 43 34 70 W9 30.13S NANTUCKET CLEAR 40 35 83 W6 30.15R $$ ANZ330-335-338-340-345-350-353-355-270800- COASTAL MARINE OBSERVATIONS STATION/POSITION TIME SKY/WX TEMP WIND PRES VSBY WAVE AIR SEA DIR/SP/G HT/PER (UTC) (F) (DEG/KT/KT) (MB) (MI) (FT/S) NY HARB ENTRANCE 0700 44 45 280/ 8/ 8 1023.6 2/12 4S FIRE IS 0700 47 N/A 3/ 4 20S FIRE ISLAND 0600 46 49 1023.2 3/ 4 23SW MTP 0700 N/A 3/ 5 HUDSON CANYON 0700 49 54 290/ 17/ 21 1023.2 4/ 5 EXECUTION ROCKS 0700 44 42 250/ 6/ 8 N/A WESTERN LI SOUND 0700 44 250/ 6/ 8 N/A 0 CENTRAL LI SOUND 0600 44 44 280/ 12/ 16 N/A 1/ 4 EASTERN LI SOUND NOT AVBL ROBBINS REEF 0700 41 1021.9 $$ >>>>>>>>>>>>>>>>>>>>>>>>>>>> KEY <<<<<<<<<<<<<<<<<<<<<<<<<<< > < > SKY/WX - SKY CONDITION/PRESENT WEATHER < > TMP - TEMPERATURE IN FAHRENHEIT < > DP - DEWPOINT IN FAHRENHEIT < > RH - RELATIVE HUMIDITY IN PERCENT < > WIND - DIRECTION AND SPEED IN MPH < > PRES - MEAN SEA LEVEL PRESSURE IN INCHES OF HG < > WCI - WIND CHILL INDEX < > VSB - VISIBILITY IN MILES < > HX - HEAT INDEX < > TC - TEMPERATURE IN CELSIUS < > VRB - VARIABLE WIND DIRECTION < > < >>>>>>>>>>>>>>>>>>>>>>>>>>>> KEY <<<<<<<<<<<<<<<<<<<<<<<<<<<

USA.gov is the U.S. government's official web portal to all federal, state and local government web resources and services.